Total_Precipitation_Accumulation
0.01 0.01 0.04 0.04 0.04 0.07 0.08 0.11 0.17 0.24 0.21 0.27 0.39 0.52 0.74 0.90 1.12 1.29 1.31 1.27 1.34 1.55 1.86 2.17 2.55 2.90 3.11 3.27 3.37 3.68 3.90 3.62 3.14 2.72 2.23 2.02 1.96 1.77 1.57 1.44 1.32 1.38 1.32 1.45
0.01 0.02 0.03 0.02 0.03 0.05 0.08 0.10 0.17 0.22 0.18 0.23 0.38 0.66 0.84 0.92 0.94 1.01 1.12 1.08 1.10 1.31 1.40 1.50 1.73 2.06 2.15 2.36 2.67 3.05 3.30 3.15 2.61 2.38 2.17 2.03 1.96 1.82 1.76 1.62 1.54 1.37 1.33 1.40
0.01 0.02 0.02 0.02 0.02 0.04 0.08 0.09 0.11 0.16 0.15 0.24 0.39 0.91 1.02 0.90 0.81 0.71 0.83 0.89 0.86 0.95 1.06 1.05 1.15 1.33 1.63 2.12 2.28 2.31 2.56 2.77 2.51 2.38 2.30 2.18 2.08 1.89 1.94 1.84 1.67 1.35 1.23 1.27
0.01 0.01 0.01 0.02 0.02 0.03 0.07 0.07 0.07 0.08 0.12 0.36 0.48 0.93 1.05 0.92 0.90 0.72 0.69 0.69 0.59 0.57 0.74 0.89 0.91 0.97 1.17 1.51 1.81 2.05 2.28 2.47 2.40 2.28 2.07 1.90 1.71 1.61 1.61 1.64 1.65 1.51 1.39 1.23
0.01 0.01 0.01 0.02 0.02 0.03 0.03 0.04 0.05 0.09 0.15 0.33 0.45 0.80 1.01 0.85 0.98 0.75 0.47 0.35 0.32 0.33 0.44 0.61 0.72 0.81 0.85 1.06 1.46 1.90 2.22 2.46 2.35 2.06 1.89 1.87 1.77 1.72 1.64 1.57 1.75 1.63 1.55 1.35
0.01 0.01 0.02 0.02 0.02 0.02 0.02 0.04 0.12 0.22 0.34 0.67 0.65 0.66 0.94 0.73 0.56 0.42 0.31 0.24 0.25 0.27 0.32 0.42 0.47 0.57 0.72 0.86 1.13 1.49 1.79 2.03 2.05 1.91 1.83 1.86 1.87 1.83 1.69 1.50 1.49 1.41 1.43 1.39
0.06 0.06 0.03 0.02 0.02 0.03 0.02 0.05 0.20 0.42 0.69 0.87 0.52 0.68 1.03 0.61 0.44 0.33 0.27 0.24 0.23 0.22 0.29 0.41 0.45 0.47 0.56 0.65 0.85 1.13 1.33 1.50 1.70 1.80 1.80 1.77 1.86 1.84 1.65 1.47 1.42 1.45 1.32 1.25
0.09 0.15 0.06 0.02 0.02 0.02 0.03 0.04 0.09 0.17 0.30 0.45 0.52 1.13 0.99 0.44 0.29 0.25 0.22 0.23 0.21 0.20 0.24 0.38 0.48 0.47 0.47 0.51 0.68 0.85 1.02 1.23 1.47 1.63 1.69 1.67 1.60 1.48 1.46 1.55 1.45 1.41 1.40 1.34
0.03 0.04 0.03 0.02 0.02 0.02 0.03 0.04 0.06 0.07 0.10 0.30 0.63 0.81 0.54 0.27 0.25 0.28 0.26 0.26 0.25 0.28 0.34 0.40 0.51 0.52 0.42 0.44 0.54 0.62 0.81 1.00 1.13 1.35 1.47 1.41 1.44 1.34 1.33 1.39 1.36 1.32 1.43 1.44
0.02 0.01 0.02 0.02 0.02 0.03 0.03 0.03 0.04 0.04 0.07 0.21 0.48 0.72 0.74 0.47 0.36 0.33 0.32 0.33 0.32 0.36 0.47 0.50 0.48 0.51 0.44 0.43 0.51 0.60 0.76 0.87 0.93 1.10 1.18 1.11 1.31 1.32 1.42 1.39 1.31 1.25 1.26 1.30
0.02 0.01 0.01 0.02 0.03 0.04 0.05 0.04 0.03 0.04 0.05 0.11 0.32 0.51 0.56 0.52 0.48 0.36 0.32 0.37 0.43 0.42 0.53 0.52 0.48 0.50 0.47 0.47 0.53 0.59 0.75 0.84 0.88 1.01 1.06 1.11 1.19 1.23 1.28 1.33 1.34 1.33 1.30 1.32
0.02 0.02 0.01 0.03 0.05 0.04 0.07 0.08 0.08 0.07 0.05 0.07 0.14 0.27 0.29 0.35 0.41 0.35 0.35 0.43 0.47 0.36 0.39 0.47 0.50 0.56 0.45 0.45 0.50 0.56 0.66 0.73 0.77 0.93 1.06 1.10 1.22 1.24 1.21 1.25 1.45 1.48 1.45 1.43
0.02 0.02 0.02 0.07 0.13 0.10 0.07 0.07 0.08 0.08 0.07 0.06 0.11 0.24 0.23 0.24 0.36 0.35 0.39 0.45 0.46 0.45 0.40 0.50 0.58 0.56 0.48 0.47 0.51 0.57 0.65 0.69 0.73 0.82 0.95 1.09 1.18 1.26 1.35 1.48 1.66 1.76 1.69 1.64
0.03 0.02 0.02 0.07 0.15 0.21 0.16 0.08 0.08 0.07 0.06 0.06 0.09 0.17 0.23 0.31 0.36 0.35 0.40 0.47 0.47 0.47 0.39 0.45 0.62 0.64 0.55 0.50 0.54 0.58 0.68 0.75 0.85 1.03 1.15 1.23 1.39 1.55 1.64 1.66 1.76 1.79 1.80 1.84
0.03 0.02 0.02 0.03 0.07 0.11 0.11 0.08 0.08 0.07 0.06 0.06 0.08 0.13 0.24 0.35 0.40 0.40 0.41 0.46 0.48 0.43 0.43 0.55 0.68 0.77 0.75 0.69 0.64 0.67 0.81 0.94 1.14 1.35 1.40 1.42 1.52 1.64 1.79 1.96 2.01 2.02 2.03 1.97
0.05 0.04 0.05 0.05 0.07 0.09 0.07 0.07 0.07 0.06 0.06 0.06 0.09 0.15 0.25 0.36 0.40 0.36 0.36 0.37 0.42 0.47 0.49 0.56 0.75 0.94 0.99 0.98 0.95 0.98 1.09 1.28 1.55 1.83 1.92 2.00 2.07 2.14 2.21 2.26 2.26 2.32 2.32 2.26
0.14 0.14 0.13 0.11 0.10 0.11 0.09 0.09 0.08 0.08 0.09 0.10 0.14 0.21 0.32 0.45 0.42 0.47 0.46 0.44 0.54 0.60 0.65 0.69 0.85 0.99 1.11 1.13 1.15 1.25 1.33 1.52 1.75 1.92 2.01 2.12 2.20 2.28 2.33 2.35 2.37 2.32 2.31 2.26
0.34 0.29 0.23 0.18 0.21 0.22 0.13 0.15 0.17 0.19 0.22 0.25 0.25 0.31 0.38 0.46 0.48 0.53 0.55 0.53 0.55 0.66 0.79 0.82 0.92 1.02 1.08 1.18 1.30 1.39 1.43 1.49 1.73 1.90 2.00 2.03 2.07 2.12 2.25 2.39 2.36 2.25 2.22 2.20
0.42 0.48 0.42 0.31 0.28 0.29 0.28 0.26 0.27 0.35 0.42 0.38 0.51 0.58 0.53 0.54 0.58 0.60 0.61 0.76 0.74 0.71 0.77 0.83 0.95 1.01 1.09 1.15 1.20 1.17 1.22 1.34 1.48 1.56 1.67 1.72 1.84 2.01 2.14 2.23 2.27 2.28 2.22 2.07
0.33 0.37 0.43 0.44 0.45 0.43 0.42 0.45 0.36 0.40 0.70 0.69 0.75 0.83 0.78 0.77 0.90 0.85 0.63 0.63 0.69 0.72 0.74 0.80 0.93 0.99 1.06 1.10 1.12 1.15 1.23 1.40 1.58 1.71 1.78 1.86 1.95 2.08 2.10 2.20 2.29 2.29 2.23 2.18
0.48 0.49 0.48 0.48 0.52 0.54 0.48 0.44 0.45 0.74 1.01 1.00 1.07 1.09 0.99 1.02 1.02 0.92 0.73 0.66 0.67 0.73 0.76 0.79 0.90 1.03 1.08 1.13 1.27 1.36 1.45 1.57 1.70 1.76 1.79 1.81 1.88 1.98 2.07 2.21 2.19 2.23 2.21 2.14
0.69 0.69 0.66 0.68 0.85 0.98 0.74 0.65 0.85 1.02 0.80 0.85 1.03 1.23 1.24 1.17 1.07 0.95 0.81 0.69 0.64 0.61 0.67 0.81 0.91 1.02 1.13 1.25 1.41 1.52 1.54 1.59 1.68 1.82 1.88 1.86 1.91 1.95 1.98 2.03 2.00 2.00 1.99 1.91
0.79 0.89 0.96 1.00 1.14 1.05 0.88 0.90 0.86 0.94 1.07 1.13 1.22 1.40 1.41 1.26 1.11 1.04 0.92 0.77 0.69 0.68 0.72 0.80 0.90 1.03 1.13 1.26 1.41 1.54 1.61 1.71 1.78 1.86 1.95 2.01 2.03 2.02 2.07 2.15 2.17 2.06 1.96 1.88
0.82 0.72 0.91 1.20 1.34 1.17 1.01 0.98 0.96 1.03 1.21 1.26 1.23 1.23 1.22 1.16 1.08 1.16 1.17 0.99 0.93 0.92 0.91 0.91 0.96 1.00 1.10 1.23 1.38 1.51 1.57 1.65 1.80 1.87 1.89 1.98 2.07 2.13 2.15 2.16 2.11 2.00 1.88 1.78
0.86 0.89 1.05 1.42 1.62 1.55 1.37 1.24 1.16 1.17 1.14 1.22 1.15 1.17 1.15 1.11 1.06 1.11 1.22 1.24 1.15 1.02 0.97 0.98 1.02 1.05 1.10 1.20 1.30 1.50 1.60 1.64 1.72 1.85 1.90 1.89 1.89 1.95 2.00 2.01 1.95 1.83 1.73 1.65
0.94 1.12 1.39 1.75 1.75 1.85 1.73 1.43 1.28 1.34 1.29 1.24 1.19 1.26 1.29 1.22 1.14 1.13 1.24 1.26 1.21 1.10 1.02 1.01 1.04 1.07 1.11 1.20 1.32 1.40 1.58 1.77 1.85 1.84 1.77 1.69 1.60 1.58 1.60 1.58 1.60 1.64 1.52 1.51